Location: Arborea
(39.7744°N, 8.5819°E)
Time: 17:20:34
(UTC+00:00)

Cosmos 332 Rocket - Pass Details

Date: 03 June 2022
Orbit: 681 x 703 km, 74.0° (Epoch: 29 June)

Event Time Altitude Azimuth Distance (km) Brightness Sun altitude
Exits shadow 23:52:10 24° 288° (WNW) 1,396 5.4 -27.5°
Maximum altitude 23:52:42 25° 298° (WNW) 1,380 5.5 -27.5°
Drops below altitude 10° 23:56:37 10° 353° (N) 2,131 7.2 -27.4°
Sets 23:59:19 0° 7° (N) 3,052 8.4 -27.3°
